Regional Weather Roundup
Issued by NWS

Home | Current Version | Previous Version | Text Only | Print | Product List | Glossary On
Versions: 1 2 3 4 5 6 7 8 9 10 11 12 13 14 15 16 17 18 19 20 21 22 23 24 25 26 27 28 29 30 31 32 33 34 35 36 37 38 39 40 41 42 43 44 45 46 47 48 49 50
000
ASUS46 KPQR 300710
RWROR

OREGON REGIONAL WEATHER ROUNDUP
NATIONAL WEATHER SERVICE PORTLAND OR
1200 AM PDT SAT AUG 30 2014

NOTE: "FAIR" INDICATES FEW OR NO CLOUDS BELOW 12,000 FEET WITH
NO SIGNIFICANT WEATHER AND/OR OBSTRUCTIONS TO VISIBILITY.

ORZ001>013-300800-
NORTHWEST OREGON


CITY           SKY/WX    TMP DP  RH WIND       PRES   REMARKS
ASTORIA        CLOUDY    59  57  93 CALM      29.96F
NEWPORT        CLOUDY    59  59 100 CALM      30.03S
PORTLAND       PTCLDY    66  55  67 NW3       29.96S
VANCOUVER WA   PTCLDY    64  53  67 CALM      29.96R
SCAPPOOSE      PTCLDY    60  56  86 CALM      29.95S
HILLSBORO      MOCLDY    60  55  83 CALM      29.96R
AURORA         MOCLDY    64  56  75 CALM      29.97R
MCMINNVILLE    PTCLDY    63  56  78 SW6       29.97S
SALEM          CLOUDY    66  54  65 W6        29.96S
CORVALLIS      MOCLDY    63  55  77 NW8       29.99S
EUGENE         PTCLDY    59  50  72 S5        29.99S
$$

ORZ021-028-300800-
SOUTHWEST OREGON


CITY           SKY/WX    TMP DP  RH WIND       PRES   REMARKS
NORTH BEND     CLOUDY    61  61 100 W3        30.02S
BROOKINGS      CLOUDY    58  58 100 CALM      30.02S
ROSEBURG       MOCLDY    68  52  56 N7        30.00R
SEXTON SUMMIT  PTCLDY    55  48  77 N8        30.06S
MEDFORD        PTCLDY    70  51  51 N3        29.97S
$$

ORZ009-041-300800-
COLUMBIA GORGE


CITY           SKY/WX    TMP DP  RH WIND       PRES   REMARKS
TROUTDALE      PTCLDY    65  55  70 SW3       29.95R
THE DALLES     CLOUDY    70  51  51 NW10      29.91F
$$

ORZ029>031-042>050-061>064-300800-
EASTERN OREGON


CITY           SKY/WX    TMP DP  RH WIND       PRES   REMARKS
REDMOND        MOCLDY    62  43  49 NW14      29.98F
BEND           PTSUNNY   57  45  62 CALM      30.02S
KLAMATH FALLS  PTCLDY    57  41  55 SW3       30.05R
LAKEVIEW       PTCLDY    55  37  50 NW10      30.07S
HERMISTON      MOCLDY    68  49  50 SW12      29.89R
PENDLETON      PTCLDY    66  46  48 W20       29.91R
JOHN DAY       MOSUNNY   61  44  53 NW5       30.00R
MEACHAM        PTCLDY    56  43  61 CALM      30.00R
LA GRANDE      MOCLDY    64  36  34 NW12      29.95R
BAKER CITY     MOCLDY    62  42  47 NW5       29.94R
BURNS          PTCLDY    61  44  53 W9        29.98R
ROME             N/A     72  38  29 NW5       29.92R
ONTARIO        MOCLDY    76  41  28 NW22G31   29.80R
$$



USA.gov is the U.S. government's official web portal to all federal, state and local government web resources and services.